Year,Month,Day,Hour,Minute,Value (Times are PST for temperature in C)
2010,05,19,00,00,11.10
2010,05,19,00,01,11.10
2010,05,19,00,02,11.10
2010,05,19,00,03,11.10
2010,05,19,00,04,11.10
2010,05,19,00,05,11.10
2010,05,19,00,06,11.00
2010,05,19,00,07,11.00
2010,05,19,00,08,10.90
2010,05,19,00,09,10.90
2010,05,19,00,10,10.90
2010,05,19,00,11,10.80
2010,05,19,00,12,10.80
2010,05,19,00,13,10.80
2010,05,19,00,14,10.80
2010,05,19,00,15,10.70
2010,05,19,00,16,10.70
2010,05,19,00,17,10.60
2010,05,19,00,18,10.60
2010,05,19,00,19,10.50
2010,05,19,00,20,10.50
2010,05,19,00,21,10.40
2010,05,19,00,22,10.30
2010,05,19,00,23,10.30
2010,05,19,00,24,10.30
2010,05,19,00,25,10.20
2010,05,19,00,26,10.20
2010,05,19,00,27,10.20
2010,05,19,00,28,10.20
2010,05,19,00,29,10.20
2010,05,19,00,30,10.10
2010,05,19,00,31,10.10
2010,05,19,00,32,10.10
2010,05,19,00,33,10.10
2010,05,19,00,34,10.10
2010,05,19,00,35,10.10
2010,05,19,00,36,10.10
2010,05,19,00,37,10.10
2010,05,19,00,38,10.10
2010,05,19,00,39,10.00
2010,05,19,00,40,10.00
2010,05,19,00,41,10.00
2010,05,19,00,42,10.00
2010,05,19,00,43,10.00
2010,05,19,00,44,10.00
2010,05,19,00,45,9.90
2010,05,19,00,46,9.90
2010,05,19,00,47,9.90
2010,05,19,00,48,9.90
2010,05,19,00,49,9.90
2010,05,19,00,50,9.90
2010,05,19,00,51,9.90
2010,05,19,00,52,9.90
2010,05,19,00,53,9.90
2010,05,19,00,54,9.90
2010,05,19,00,55,9.90
2010,05,19,00,56,10.00
2010,05,19,00,57,10.00
2010,05,19,00,58,10.00
2010,05,19,00,59,10.00
2010,05,19,01,00,10.00
2010,05,19,01,01,10.00
2010,05,19,01,02,10.00
2010,05,19,01,03,10.00
2010,05,19,01,04,10.00
2010,05,19,01,05,10.00
2010,05,19,01,06,10.00
2010,05,19,01,07,10.00
2010,05,19,01,08,10.00
2010,05,19,01,09,10.00
2010,05,19,01,10,10.00
2010,05,19,01,11,10.00
2010,05,19,01,12,10.00
2010,05,19,01,13,10.00
2010,05,19,01,14,10.00
2010,05,19,01,15,10.00
2010,05,19,01,16,10.00
2010,05,19,01,17,10.00
2010,05,19,01,18,10.00
2010,05,19,01,19,10.00
2010,05,19,01,20,10.00
2010,05,19,01,21,10.00
2010,05,19,01,22,10.10
2010,05,19,01,23,10.10
2010,05,19,01,24,10.10
2010,05,19,01,25,10.10
2010,05,19,01,26,10.10
2010,05,19,01,27,10.10
2010,05,19,01,28,10.10
2010,05,19,01,29,10.10
2010,05,19,01,30,10.10
2010,05,19,01,31,10.10
2010,05,19,01,32,10.10
2010,05,19,01,33,10.10
2010,05,19,01,34,10.20
2010,05,19,01,35,10.20
2010,05,19,01,36,10.20
2010,05,19,01,37,10.20
2010,05,19,01,38,10.20
2010,05,19,01,39,10.20
2010,05,19,01,40,10.20
2010,05,19,01,41,10.20
2010,05,19,01,42,10.20
2010,05,19,01,43,10.20
2010,05,19,01,44,10.20
2010,05,19,01,45,10.20
2010,05,19,01,46,10.20
2010,05,19,01,47,10.20
2010,05,19,01,48,10.20
2010,05,19,01,49,10.20
2010,05,19,01,50,10.20
2010,05,19,01,51,10.20
2010,05,19,01,52,10.20
2010,05,19,01,53,10.20
2010,05,19,01,54,10.10
2010,05,19,01,55,10.10
2010,05,19,01,56,10.10
2010,05,19,01,57,10.10
2010,05,19,01,58,10.00
2010,05,19,01,59,10.00
2010,05,19,02,00,10.00
2010,05,19,02,01,9.90
2010,05,19,02,02,9.90
2010,05,19,02,03,9.90
2010,05,19,02,04,9.80
2010,05,19,02,05,9.80
2010,05,19,02,06,9.80
2010,05,19,02,07,9.70
2010,05,19,02,08,9.70
2010,05,19,02,09,9.70
2010,05,19,02,10,9.60
2010,05,19,02,11,9.60
2010,05,19,02,12,9.60
2010,05,19,02,13,9.60
2010,05,19,02,14,9.60
2010,05,19,02,15,9.50
2010,05,19,02,16,9.50
2010,05,19,02,17,9.40
2010,05,19,02,18,9.40
2010,05,19,02,19,9.40
2010,05,19,02,20,9.40
2010,05,19,02,21,9.30
2010,05,19,02,22,9.30
2010,05,19,02,23,9.30
2010,05,19,02,24,9.30
2010,05,19,02,25,9.30
2010,05,19,02,26,9.20
2010,05,19,02,27,9.20
2010,05,19,02,28,9.20
2010,05,19,02,29,9.20
2010,05,19,02,30,9.20
2010,05,19,02,31,9.20
2010,05,19,02,32,9.20
2010,05,19,02,33,9.20
2010,05,19,02,34,9.20
2010,05,19,02,35,9.20
2010,05,19,02,36,9.20
2010,05,19,02,37,9.20
2010,05,19,02,38,9.20
2010,05,19,02,39,9.20
2010,05,19,02,40,9.20
2010,05,19,02,41,9.20
2010,05,19,02,42,9.20
2010,05,19,02,43,9.20
2010,05,19,02,44,9.20
2010,05,19,02,45,9.20
2010,05,19,02,46,9.20
2010,05,19,02,47,9.20
2010,05,19,02,48,9.20
2010,05,19,02,49,9.20
2010,05,19,02,50,9.10
2010,05,19,02,51,9.10
2010,05,19,02,52,9.10
2010,05,19,02,53,9.10
2010,05,19,02,54,9.10
2010,05,19,02,55,9.10
2010,05,19,02,56,9.10
2010,05,19,02,57,9.10
2010,05,19,02,58,9.00
2010,05,19,02,59,9.00
2010,05,19,03,00,9.00
2010,05,19,03,01,9.00
2010,05,19,03,02,9.00
2010,05,19,03,03,9.00
2010,05,19,03,04,9.00
2010,05,19,03,05,9.00
2010,05,19,03,06,8.90
2010,05,19,03,07,8.90
2010,05,19,03,08,8.90
2010,05,19,03,09,8.90
2010,05,19,03,10,8.90
2010,05,19,03,11,8.90
2010,05,19,03,12,8.90
2010,05,19,03,13,8.90
2010,05,19,03,14,8.90
2010,05,19,03,15,8.90
2010,05,19,03,16,8.90
2010,05,19,03,17,8.90
2010,05,19,03,18,8.90
2010,05,19,03,19,8.90
2010,05,19,03,20,8.90
2010,05,19,03,21,8.90
2010,05,19,03,22,8.80
2010,05,19,03,23,8.80
2010,05,19,03,24,8.80
2010,05,19,03,25,8.80
2010,05,19,03,26,8.80
2010,05,19,03,27,8.80
2010,05,19,03,28,8.80
2010,05,19,03,29,8.80
2010,05,19,03,30,8.80
2010,05,19,03,31,8.80
2010,05,19,03,32,8.80
2010,05,19,03,33,8.80
2010,05,19,03,34,8.80
2010,05,19,03,35,8.80
2010,05,19,03,36,8.80
2010,05,19,03,37,8.80
2010,05,19,03,38,8.80
2010,05,19,03,39,8.80
2010,05,19,03,40,8.80
2010,05,19,03,41,8.80
2010,05,19,03,42,8.80
2010,05,19,03,43,8.80
2010,05,19,03,44,8.80
2010,05,19,03,45,8.80
2010,05,19,03,46,8.80
2010,05,19,03,47,8.80
2010,05,19,03,48,8.80
2010,05,19,03,49,8.80
2010,05,19,03,50,8.80
2010,05,19,03,51,8.80
2010,05,19,03,52,8.80
2010,05,19,03,53,8.80
2010,05,19,03,54,8.80
2010,05,19,03,55,8.80
2010,05,19,03,56,8.80
2010,05,19,03,57,8.80
2010,05,19,03,58,8.80
2010,05,19,03,59,8.80
2010,05,19,04,00,8.80
2010,05,19,04,01,8.80
2010,05,19,04,02,8.70
2010,05,19,04,03,8.70
2010,05,19,04,04,8.70
2010,05,19,04,05,8.70
2010,05,19,04,06,8.70
2010,05,19,04,07,8.70
2010,05,19,04,08,8.70
2010,05,19,04,09,8.70
2010,05,19,04,10,8.70
2010,05,19,04,11,8.70
2010,05,19,04,12,8.70
2010,05,19,04,13,8.70
2010,05,19,04,14,8.70
2010,05,19,04,15,8.70
2010,05,19,04,16,8.70
2010,05,19,04,17,8.70
2010,05,19,04,18,8.70
2010,05,19,04,19,8.70
2010,05,19,04,20,8.70
2010,05,19,04,21,8.70
2010,05,19,04,22,8.70
2010,05,19,04,23,8.70
2010,05,19,04,24,8.70
2010,05,19,04,25,8.70
2010,05,19,04,26,8.70
2010,05,19,04,27,8.70
2010,05,19,04,28,8.70
2010,05,19,04,29,8.70
2010,05,19,04,30,8.70
2010,05,19,04,31,8.70
2010,05,19,04,32,8.80
2010,05,19,04,33,8.80
2010,05,19,04,34,8.80
2010,05,19,04,35,8.80
2010,05,19,04,36,8.80
2010,05,19,04,37,8.80
2010,05,19,04,38,8.80
2010,05,19,04,39,8.80
2010,05,19,04,40,8.80
2010,05,19,04,41,8.80
2010,05,19,04,42,8.70
2010,05,19,04,43,8.70
2010,05,19,04,44,8.70
2010,05,19,04,45,8.70
2010,05,19,04,46,8.70
2010,05,19,04,47,8.70
2010,05,19,04,48,8.70
2010,05,19,04,49,8.70
2010,05,19,04,50,8.70
2010,05,19,04,51,8.70
2010,05,19,04,52,8.70
2010,05,19,04,53,8.60
2010,05,19,04,54,8.60
2010,05,19,04,55,8.60
2010,05,19,04,56,8.60
2010,05,19,04,57,8.60
2010,05,19,04,58,8.60
2010,05,19,04,59,8.60
2010,05,19,05,00,8.60
2010,05,19,05,01,8.60
2010,05,19,05,02,8.50
2010,05,19,05,03,8.50
2010,05,19,05,04,8.50
2010,05,19,05,05,8.50
2010,05,19,05,06,8.50
2010,05,19,05,07,8.50
2010,05,19,05,08,8.50
2010,05,19,05,09,8.50
2010,05,19,05,10,8.40
2010,05,19,05,11,8.40
2010,05,19,05,12,8.40
2010,05,19,05,13,8.40
2010,05,19,05,14,8.40
2010,05,19,05,15,8.40
2010,05,19,05,16,8.40
2010,05,19,05,17,8.40
2010,05,19,05,18,8.40
2010,05,19,05,19,8.40
2010,05,19,05,20,8.40
2010,05,19,05,21,8.40
2010,05,19,05,22,8.40
2010,05,19,05,23,8.40
2010,05,19,05,24,8.40
2010,05,19,05,25,8.40
2010,05,19,05,26,8.40
2010,05,19,05,27,8.40
2010,05,19,05,28,8.40
2010,05,19,05,29,8.40
2010,05,19,05,30,8.40
2010,05,19,05,31,8.40
2010,05,19,05,32,8.40
2010,05,19,05,33,8.40
2010,05,19,05,34,8.40
2010,05,19,05,35,8.40
2010,05,19,05,36,8.40
2010,05,19,05,37,8.40
2010,05,19,05,38,8.40
2010,05,19,05,39,8.40
2010,05,19,05,40,8.40
2010,05,19,05,41,8.40
2010,05,19,05,42,8.50
2010,05,19,05,43,8.50
2010,05,19,05,44,8.50
2010,05,19,05,45,8.50
2010,05,19,05,46,8.50
2010,05,19,05,47,8.50
2010,05,19,05,48,8.50
2010,05,19,05,49,8.50
2010,05,19,05,50,8.40
2010,05,19,05,51,8.40
2010,05,19,05,52,8.40
2010,05,19,05,53,8.40
2010,05,19,05,54,8.40
2010,05,19,05,55,8.40
2010,05,19,05,56,8.40
2010,05,19,05,57,8.40
2010,05,19,05,58,8.40
2010,05,19,05,59,8.40
2010,05,19,06,00,8.50
2010,05,19,06,01,8.50
2010,05,19,06,02,8.50
2010,05,19,06,03,8.50
2010,05,19,06,04,8.50
2010,05,19,06,05,8.50
2010,05,19,06,06,8.50
2010,05,19,06,07,8.50
2010,05,19,06,08,8.50
2010,05,19,06,09,8.50
2010,05,19,06,10,8.50
2010,05,19,06,11,8.50
2010,05,19,06,12,8.50
2010,05,19,06,13,8.50
2010,05,19,06,14,8.60
2010,05,19,06,15,8.60
2010,05,19,06,16,8.50
2010,05,19,06,17,8.50
2010,05,19,06,18,8.50
2010,05,19,06,19,8.50
2010,05,19,06,20,8.50
2010,05,19,06,21,8.50
2010,05,19,06,22,8.50
2010,05,19,06,23,8.50
2010,05,19,06,24,8.50
2010,05,19,06,25,8.50
2010,05,19,06,26,8.50
2010,05,19,06,27,8.50
2010,05,19,06,28,8.60
2010,05,19,06,29,8.60
2010,05,19,06,30,8.60
2010,05,19,06,31,8.60
2010,05,19,06,32,8.60
2010,05,19,06,33,8.60
2010,05,19,06,34,8.60
2010,05,19,06,35,8.60
2010,05,19,06,36,8.70
2010,05,19,06,37,8.70
2010,05,19,06,38,8.70
2010,05,19,06,39,8.70
2010,05,19,06,40,8.70
2010,05,19,06,41,8.70
2010,05,19,06,42,8.70
2010,05,19,06,43,8.70
2010,05,19,06,44,8.70
2010,05,19,06,45,8.70
2010,05,19,06,46,8.70
2010,05,19,06,47,8.70
2010,05,19,06,48,8.70
2010,05,19,06,49,8.70
2010,05,19,06,50,8.70
2010,05,19,06,51,8.70
2010,05,19,06,52,8.70
2010,05,19,06,53,8.80
2010,05,19,06,54,8.80
2010,05,19,06,55,8.80
2010,05,19,06,56,8.80
2010,05,19,06,57,8.80
2010,05,19,06,58,8.80
2010,05,19,06,59,8.80
2010,05,19,07,00,8.80
2010,05,19,07,01,8.80
2010,05,19,07,02,8.80
2010,05,19,07,03,8.80
2010,05,19,07,04,8.90
2010,05,19,07,05,8.90
2010,05,19,07,06,8.90
2010,05,19,07,07,8.90
2010,05,19,07,08,8.90
2010,05,19,07,09,9.00
2010,05,19,07,10,9.00
2010,05,19,07,11,9.00
2010,05,19,07,12,9.00
2010,05,19,07,13,9.00
2010,05,19,07,14,9.00
2010,05,19,07,15,9.10
2010,05,19,07,16,9.10
2010,05,19,07,17,9.10
2010,05,19,07,18,9.10
2010,05,19,07,19,9.10
2010,05,19,07,20,9.10
2010,05,19,07,21,9.10
2010,05,19,07,22,9.10
2010,05,19,07,23,9.10
2010,05,19,07,24,9.10
2010,05,19,07,25,9.20
2010,05,19,07,26,9.20
2010,05,19,07,27,9.20
2010,05,19,07,28,9.20
2010,05,19,07,29,9.20
2010,05,19,07,30,9.20
2010,05,19,07,31,9.30
2010,05,19,07,32,9.30
2010,05,19,07,33,9.30
2010,05,19,07,34,9.30
2010,05,19,07,35,9.30
2010,05,19,07,36,9.40
2010,05,19,07,37,9.40
2010,05,19,07,38,9.40
2010,05,19,07,39,9.40
2010,05,19,07,40,9.40
2010,05,19,07,41,9.40
2010,05,19,07,42,9.40
2010,05,19,07,43,9.50
2010,05,19,07,44,9.50
2010,05,19,07,45,9.50
2010,05,19,07,46,9.50
2010,05,19,07,47,9.50
2010,05,19,07,48,9.50
2010,05,19,07,49,9.50
2010,05,19,07,50,9.60
2010,05,19,07,51,9.50
2010,05,19,07,52,9.60
2010,05,19,07,53,9.60
2010,05,19,07,54,9.60
2010,05,19,07,55,9.60
2010,05,19,07,56,9.60
2010,05,19,07,57,9.60
2010,05,19,07,58,9.60
2010,05,19,07,59,9.60
2010,05,19,08,00,9.60
2010,05,19,08,01,9.60
2010,05,19,08,02,9.60
2010,05,19,08,03,9.60
2010,05,19,08,04,9.60
2010,05,19,08,05,9.60
2010,05,19,08,06,9.60
2010,05,19,08,07,9.70
2010,05,19,08,08,9.70
2010,05,19,08,09,9.70
2010,05,19,08,10,9.70
2010,05,19,08,11,9.70
2010,05,19,08,12,9.70
2010,05,19,08,13,9.70
2010,05,19,08,14,9.70
2010,05,19,08,15,9.70
2010,05,19,08,16,9.70
2010,05,19,08,17,9.70
2010,05,19,08,18,9.70
2010,05,19,08,19,9.70
2010,05,19,08,20,9.70
2010,05,19,08,21,9.70
2010,05,19,08,22,9.80
2010,05,19,08,23,9.80
2010,05,19,08,24,9.80
2010,05,19,08,25,9.80
2010,05,19,08,26,9.80
2010,05,19,08,27,9.80
2010,05,19,08,28,9.80
2010,05,19,08,29,9.80
2010,05,19,08,30,9.80
2010,05,19,08,31,9.80
2010,05,19,08,32,9.80
2010,05,19,08,33,9.80
2010,05,19,08,34,9.90
2010,05,19,08,35,9.90
2010,05,19,08,36,9.90
2010,05,19,08,37,9.90
2010,05,19,08,38,10.00
2010,05,19,08,39,10.00
2010,05,19,08,40,10.00
2010,05,19,08,41,10.00
2010,05,19,08,42,10.10
2010,05,19,08,43,10.10
2010,05,19,08,44,10.10
2010,05,19,08,45,10.10
2010,05,19,08,46,10.10
2010,05,19,08,47,10.10
2010,05,19,08,48,10.20
2010,05,19,08,49,10.20
2010,05,19,08,50,10.20
2010,05,19,08,51,10.20
2010,05,19,08,52,10.20
2010,05,19,08,53,10.20
2010,05,19,08,54,10.20
2010,05,19,08,55,10.20
2010,05,19,08,56,10.30
2010,05,19,08,57,10.30
2010,05,19,08,58,10.30
2010,05,19,08,59,10.30
2010,05,19,09,00,10.30
2010,05,19,09,01,10.30
2010,05,19,09,02,10.40
2010,05,19,09,03,10.40
2010,05,19,09,04,10.40
2010,05,19,09,05,10.40
2010,05,19,09,06,10.50
2010,05,19,09,07,10.50
2010,05,19,09,08,10.60
2010,05,19,09,09,10.60
2010,05,19,09,10,10.60
2010,05,19,09,11,10.70
2010,05,19,09,12,10.70
2010,05,19,09,13,10.80
2010,05,19,09,14,10.80
2010,05,19,09,15,10.80
2010,05,19,09,16,10.90
2010,05,19,09,17,10.90
2010,05,19,09,18,10.90
2010,05,19,09,19,11.00
2010,05,19,09,20,11.00
2010,05,19,09,21,11.10
2010,05,19,09,22,11.10
2010,05,19,09,23,11.20
2010,05,19,09,24,11.20
2010,05,19,09,25,11.20
2010,05,19,09,26,11.30
2010,05,19,09,27,11.30
2010,05,19,09,28,11.30
2010,05,19,09,29,11.30
2010,05,19,09,30,11.40
2010,05,19,09,31,11.40
2010,05,19,09,32,11.50
2010,05,19,09,33,11.50
2010,05,19,09,34,11.60
2010,05,19,09,35,11.60
2010,05,19,09,36,11.70
2010,05,19,09,37,11.80
2010,05,19,09,38,11.80
2010,05,19,09,39,11.90
2010,05,19,09,40,12.00
2010,05,19,09,41,12.10
2010,05,19,09,42,12.20
2010,05,19,09,43,12.20
2010,05,19,09,44,12.20
2010,05,19,09,45,12.30
2010,05,19,09,46,12.30
2010,05,19,09,47,12.40
2010,05,19,09,48,12.40
2010,05,19,09,49,12.50
2010,05,19,09,50,12.50
2010,05,19,09,51,12.60
2010,05,19,09,52,12.60
2010,05,19,09,53,12.70
2010,05,19,09,54,12.80
2010,05,19,09,55,12.80
2010,05,19,09,56,12.90
2010,05,19,09,57,13.00
2010,05,19,09,58,13.00
2010,05,19,09,59,13.10
2010,05,19,10,00,13.10
2010,05,19,10,01,13.20
2010,05,19,10,02,13.20
2010,05,19,10,03,13.20
2010,05,19,10,04,13.20
2010,05,19,10,05,13.20
2010,05,19,10,06,13.20
2010,05,19,10,07,13.30
2010,05,19,10,08,13.30
2010,05,19,10,09,13.30
2010,05,19,10,10,13.30
2010,05,19,10,11,13.30
2010,05,19,10,12,13.40
2010,05,19,10,13,13.40
2010,05,19,10,14,13.40
2010,05,19,10,15,13.40
2010,05,19,10,16,13.40
2010,05,19,10,17,13.40
2010,05,19,10,18,13.50
2010,05,19,10,19,13.50
2010,05,19,10,20,13.60
2010,05,19,10,21,13.60
2010,05,19,10,22,13.60
2010,05,19,10,23,13.60
2010,05,19,10,24,13.50
2010,05,19,10,25,13.40
2010,05,19,10,26,13.40
2010,05,19,10,27,13.40
2010,05,19,10,28,13.40
2010,05,19,10,29,13.50
2010,05,19,10,30,13.50
2010,05,19,10,31,13.50
2010,05,19,10,32,13.50
2010,05,19,10,33,13.50
2010,05,19,10,34,13.50
2010,05,19,10,35,13.50
2010,05,19,10,36,13.50
2010,05,19,10,37,13.50
2010,05,19,10,38,13.60
2010,05,19,10,39,13.70
2010,05,19,10,40,13.80
2010,05,19,10,41,13.90
2010,05,19,10,42,14.00
2010,05,19,10,43,14.10
2010,05,19,10,44,14.10
2010,05,19,10,45,14.10
2010,05,19,10,46,14.20
2010,05,19,10,47,14.20
2010,05,19,10,48,14.20
2010,05,19,10,49,14.20
2010,05,19,10,50,14.30
2010,05,19,10,51,14.30
2010,05,19,10,52,14.40
2010,05,19,10,53,14.40
2010,05,19,10,54,14.40
2010,05,19,10,55,14.50
2010,05,19,10,56,14.60
2010,05,19,10,57,14.60
2010,05,19,10,58,14.70
2010,05,19,10,59,14.80
2010,05,19,11,00,14.90
2010,05,19,11,01,15.00
2010,05,19,11,02,15.00
2010,05,19,11,03,15.00
2010,05,19,11,04,15.00
2010,05,19,11,05,15.00
2010,05,19,11,06,15.10
2010,05,19,11,07,15.10
2010,05,19,11,08,15.00
2010,05,19,11,09,15.00
2010,05,19,11,10,15.00
2010,05,19,11,11,15.00
2010,05,19,11,12,15.00
2010,05,19,11,13,15.00
2010,05,19,11,14,15.10
2010,05,19,11,15,15.10
2010,05,19,11,16,15.10
2010,05,19,11,17,15.20
2010,05,19,11,18,15.30
2010,05,19,11,19,15.30
2010,05,19,11,20,15.30
2010,05,19,11,21,15.30
2010,05,19,11,22,15.30
2010,05,19,11,23,15.30
2010,05,19,11,24,15.20
2010,05,19,11,25,15.10
2010,05,19,11,26,15.00
2010,05,19,11,27,15.00
2010,05,19,11,28,15.00
2010,05,19,11,29,15.00
2010,05,19,11,30,15.00
2010,05,19,11,31,15.00
2010,05,19,11,32,15.00
2010,05,19,11,33,15.00
2010,05,19,11,34,15.00
2010,05,19,11,35,15.10
2010,05,19,11,36,15.20
2010,05,19,11,37,15.30
2010,05,19,11,38,15.40
2010,05,19,11,39,15.40
2010,05,19,11,40,15.50
2010,05,19,11,41,15.50
2010,05,19,11,42,15.50
2010,05,19,11,43,15.50
2010,05,19,11,44,15.40
2010,05,19,11,45,15.40
2010,05,19,11,46,15.30
2010,05,19,11,47,15.30
2010,05,19,11,48,15.30
2010,05,19,11,49,15.30
2010,05,19,11,50,15.20
2010,05,19,11,51,15.10
2010,05,19,11,52,15.00
2010,05,19,11,53,15.00
2010,05,19,11,54,15.00
2010,05,19,11,55,15.00
2010,05,19,11,56,15.00
2010,05,19,11,57,14.90
2010,05,19,11,58,14.90
2010,05,19,11,59,14.80
2010,05,19,12,00,14.90
2010,05,19,12,01,14.90
2010,05,19,12,02,14.90
2010,05,19,12,03,15.00
2010,05,19,12,04,15.00
2010,05,19,12,05,15.00
2010,05,19,12,06,15.00
2010,05,19,12,07,15.00
2010,05,19,12,08,15.00
2010,05,19,12,09,15.00
2010,05,19,12,10,15.10
2010,05,19,12,11,15.20
2010,05,19,12,12,15.30
2010,05,19,12,13,15.30
2010,05,19,12,14,15.40
2010,05,19,12,15,15.50
2010,05,19,12,16,15.60
2010,05,19,12,17,15.60
2010,05,19,12,18,15.60
2010,05,19,12,19,15.60
2010,05,19,12,20,15.70
2010,05,19,12,21,15.80
2010,05,19,12,22,15.80
2010,05,19,12,23,15.80
2010,05,19,12,24,15.80
2010,05,19,12,25,15.80
2010,05,19,12,26,15.80
2010,05,19,12,27,15.70
2010,05,19,12,28,15.60
2010,05,19,12,29,15.60
2010,05,19,12,30,15.50
2010,05,19,12,31,15.50
2010,05,19,12,32,15.40
2010,05,19,12,33,15.30
2010,05,19,12,34,15.30
2010,05,19,12,35,15.30
2010,05,19,12,36,15.30
2010,05,19,12,37,15.30
2010,05,19,12,38,15.30
2010,05,19,12,39,15.30
2010,05,19,12,40,15.30
2010,05,19,12,41,15.30
2010,05,19,12,42,15.30
2010,05,19,12,43,15.40
2010,05,19,12,44,15.40
2010,05,19,12,45,15.40
2010,05,19,12,46,15.40
2010,05,19,12,47,15.40
2010,05,19,12,48,15.40
2010,05,19,12,49,15.50
2010,05,19,12,50,15.50
2010,05,19,12,51,15.60
2010,05,19,12,52,15.60
2010,05,19,12,53,15.60
2010,05,19,12,54,15.60
2010,05,19,12,55,15.60
2010,05,19,12,56,15.70
2010,05,19,12,57,15.70
2010,05,19,12,58,15.70
2010,05,19,12,59,15.70
2010,05,19,13,00,15.70
2010,05,19,13,01,15.60
2010,05,19,13,02,15.60
2010,05,19,13,03,15.60
2010,05,19,13,04,15.60
2010,05,19,13,05,15.60
2010,05,19,13,06,15.60
2010,05,19,13,07,15.50
2010,05,19,13,08,15.50
2010,05,19,13,09,15.50
2010,05,19,13,10,15.50
2010,05,19,13,11,15.50
2010,05,19,13,12,15.50
2010,05,19,13,13,15.50
2010,05,19,13,14,15.50
2010,05,19,13,15,15.50
2010,05,19,13,16,15.40
2010,05,19,13,17,15.40
2010,05,19,13,18,15.40
2010,05,19,13,19,15.40
2010,05,19,13,20,15.40
2010,05,19,13,21,15.40
2010,05,19,13,22,15.40
2010,05,19,13,23,15.40
2010,05,19,13,24,15.40
2010,05,19,13,25,15.40
2010,05,19,13,26,15.40
2010,05,19,13,27,15.40
2010,05,19,13,28,15.50
2010,05,19,13,29,15.50
2010,05,19,13,30,15.40
2010,05,19,13,31,15.40
2010,05,19,13,32,15.40
2010,05,19,13,33,15.40
2010,05,19,13,34,15.40
2010,05,19,13,35,15.40
2010,05,19,13,36,15.40
2010,05,19,13,37,15.40
2010,05,19,13,38,15.40
2010,05,19,13,39,15.40
2010,05,19,13,40,15.40
2010,05,19,13,41,15.40
2010,05,19,13,42,15.40
2010,05,19,13,43,15.40
2010,05,19,13,44,15.40
2010,05,19,13,45,15.40
2010,05,19,13,46,15.40
2010,05,19,13,47,15.40
2010,05,19,13,48,15.40
2010,05,19,13,49,15.40
2010,05,19,13,50,15.40
2010,05,19,13,51,15.40
2010,05,19,13,52,15.40
2010,05,19,13,53,15.40
2010,05,19,13,54,15.40
2010,05,19,13,55,15.40
2010,05,19,13,56,15.40
2010,05,19,13,57,15.40
2010,05,19,13,58,15.40
2010,05,19,13,59,15.40
2010,05,19,14,00,15.40
2010,05,19,14,01,15.40
2010,05,19,14,02,15.40
2010,05,19,14,03,15.40
2010,05,19,14,04,15.40
2010,05,19,14,05,15.40
2010,05,19,14,06,15.50
2010,05,19,14,07,15.50
2010,05,19,14,08,15.60
2010,05,19,14,09,15.60
2010,05,19,14,10,15.60
2010,05,19,14,11,15.70
2010,05,19,14,12,15.70
2010,05,19,14,13,15.70
2010,05,19,14,14,15.80
2010,05,19,14,15,15.80
2010,05,19,14,16,15.80
2010,05,19,14,17,15.80
2010,05,19,14,18,15.80
2010,05,19,14,19,15.80
2010,05,19,14,20,15.80
2010,05,19,14,21,15.80
2010,05,19,14,22,15.80
2010,05,19,14,23,15.80
2010,05,19,14,24,15.80
2010,05,19,14,25,15.80
2010,05,19,14,26,15.80
2010,05,19,14,27,15.80
2010,05,19,14,28,15.80
2010,05,19,14,29,15.80
2010,05,19,14,30,15.80
2010,05,19,14,31,15.80
2010,05,19,14,32,15.80
2010,05,19,14,33,15.70
2010,05,19,14,34,15.70
2010,05,19,14,35,15.70
2010,05,19,14,36,15.60
2010,05,19,14,37,15.60
2010,05,19,14,38,15.60
2010,05,19,14,39,15.60
2010,05,19,14,40,15.50
2010,05,19,14,41,15.50
2010,05,19,14,42,15.40
2010,05,19,14,43,15.40
2010,05,19,14,44,15.30
2010,05,19,14,45,15.30
2010,05,19,14,46,15.30
2010,05,19,14,47,15.20
2010,05,19,14,48,15.20
2010,05,19,14,49,15.20
2010,05,19,14,50,15.10
2010,05,19,14,51,15.10
2010,05,19,14,52,15.00
2010,05,19,14,53,15.00
2010,05,19,14,54,15.00
2010,05,19,14,55,15.00
2010,05,19,14,56,15.00
2010,05,19,14,57,15.00
2010,05,19,14,58,14.90
2010,05,19,14,59,14.80
2010,05,19,15,00,14.70
2010,05,19,15,01,14.70
2010,05,19,15,02,14.60
2010,05,19,15,03,14.50
2010,05,19,15,04,14.40
2010,05,19,15,05,14.40
2010,05,19,15,06,14.30
2010,05,19,15,07,14.20
2010,05,19,15,08,14.20
2010,05,19,15,09,14.10
2010,05,19,15,10,14.00
2010,05,19,15,11,14.00
2010,05,19,15,12,13.90
2010,05,19,15,13,13.80
2010,05,19,15,14,13.80
2010,05,19,15,15,13.70
2010,05,19,15,16,13.60
2010,05,19,15,17,13.50
2010,05,19,15,18,13.40
2010,05,19,15,19,13.30
2010,05,19,15,20,13.30
2010,05,19,15,21,13.20
2010,05,19,15,22,13.20
2010,05,19,15,23,13.10
2010,05,19,15,24,13.10
2010,05,19,15,25,13.00
2010,05,19,15,26,13.00
2010,05,19,15,27,12.90
2010,05,19,15,28,12.90
2010,05,19,15,29,12.80
2010,05,19,15,30,12.80
2010,05,19,15,31,12.80
2010,05,19,15,32,12.80
2010,05,19,15,33,12.70
2010,05,19,15,34,12.70
2010,05,19,15,35,12.70
2010,05,19,15,36,12.70
2010,05,19,15,37,12.70
2010,05,19,15,38,12.60
2010,05,19,15,39,12.60
2010,05,19,15,40,12.60
2010,05,19,15,41,12.60
2010,05,19,15,42,12.60
2010,05,19,15,43,12.60
2010,05,19,15,44,12.60
2010,05,19,15,45,12.60
2010,05,19,15,46,12.50
2010,05,19,15,47,12.50
2010,05,19,15,48,12.50
2010,05,19,15,49,12.50
2010,05,19,15,50,12.50
2010,05,19,15,51,12.50
2010,05,19,15,52,12.50
2010,05,19,15,53,12.50
2010,05,19,15,54,12.50
2010,05,19,15,55,12.50
2010,05,19,15,56,12.50
2010,05,19,15,57,12.50
2010,05,19,15,58,12.40
2010,05,19,15,59,12.40
2010,05,19,16,00,12.40
2010,05,19,16,01,12.40
2010,05,19,16,02,12.40
2010,05,19,16,03,12.30
2010,05,19,16,04,12.30
2010,05,19,16,05,12.20
2010,05,19,16,06,12.20
2010,05,19,16,07,12.20
2010,05,19,16,08,12.20
2010,05,19,16,09,12.20
2010,05,19,16,10,12.30
2010,05,19,16,11,12.30
2010,05,19,16,12,12.30
2010,05,19,16,13,12.30
2010,05,19,16,14,12.30
2010,05,19,16,15,12.40
2010,05,19,16,16,12.40
2010,05,19,16,17,12.40
2010,05,19,16,18,12.40
2010,05,19,16,19,12.40
2010,05,19,16,20,12.40
2010,05,19,16,21,12.40
2010,05,19,16,22,12.30
2010,05,19,16,23,12.30
2010,05,19,16,24,12.30
2010,05,19,16,25,12.30
2010,05,19,16,26,12.30
2010,05,19,16,27,12.30
2010,05,19,16,28,12.30
2010,05,19,16,29,12.30
2010,05,19,16,30,12.30
2010,05,19,16,31,12.30
2010,05,19,16,32,12.20
2010,05,19,16,33,12.20
2010,05,19,16,34,12.20
2010,05,19,16,35,12.20
2010,05,19,16,36,12.20
2010,05,19,16,37,12.20
2010,05,19,16,38,12.20
2010,05,19,16,39,12.20
2010,05,19,16,40,12.20
2010,05,19,16,41,12.20
2010,05,19,16,42,12.20
2010,05,19,16,43,12.20
2010,05,19,16,44,12.20
2010,05,19,16,45,12.20
2010,05,19,16,46,12.20
2010,05,19,16,47,12.20
2010,05,19,16,48,12.20
2010,05,19,16,49,12.20
2010,05,19,16,50,12.20
2010,05,19,16,51,12.20
2010,05,19,16,52,12.20
2010,05,19,16,53,12.20
2010,05,19,16,54,12.20
2010,05,19,16,55,12.20
2010,05,19,16,56,12.20
2010,05,19,16,57,12.20
2010,05,19,16,58,12.20
2010,05,19,16,59,12.20
2010,05,19,17,00,12.20
2010,05,19,17,01,12.20
2010,05,19,17,02,12.20
2010,05,19,17,03,12.20
2010,05,19,17,04,12.20
2010,05,19,17,05,12.20
2010,05,19,17,06,12.20
2010,05,19,17,07,12.10
2010,05,19,17,08,12.10
2010,05,19,17,09,12.10
2010,05,19,17,10,12.00
2010,05,19,17,11,12.00
2010,05,19,17,12,11.90
2010,05,19,17,13,11.90
2010,05,19,17,14,11.90
2010,05,19,17,15,11.90
2010,05,19,17,16,11.90
2010,05,19,17,17,11.90
2010,05,19,17,18,12.00
2010,05,19,17,19,12.00
2010,05,19,17,20,12.00
2010,05,19,17,21,12.10
2010,05,19,17,22,12.10
2010,05,19,17,23,12.10
2010,05,19,17,24,12.00
2010,05,19,17,25,12.10
2010,05,19,17,26,12.10
2010,05,19,17,27,12.00
2010,05,19,17,28,12.00
2010,05,19,17,29,12.00
2010,05,19,17,30,12.00
2010,05,19,17,31,11.90
2010,05,19,17,32,11.90
2010,05,19,17,33,12.00
2010,05,19,17,34,12.10
2010,05,19,17,35,12.10
2010,05,19,17,36,12.10
2010,05,19,17,37,12.10